[[{"header":{"parameterUnit":"m.s-1","parameterCategory":1,"la1":30.2991,"la2":30.254,"lo1":-89.0895,"lo2":-89.0444,"dy":0.0017,"dx":0.0017,"nx":28,"ny":28,"refTime":"2025-09-18T03:00:00:Z","depth":0,"parameterNumber":2,"parameterNumberName":"U-component_of_WINDS"},"data":[0,0,0,0,0,0,0,0,0,0,0,0,0,0,0,0,0,0,0,0,0,0,0,0,0,0,0,0,0,0,0,0,0,0,0,0,0,0,0,0,0,0,0,0,0,0,0,0,0,0,0,0,0,0,0,0,0,0,-0.0514,-0.0514,0,-0.0529,-0.0529,-0.0529,-0.0512,-0.0511,-0.0511,-0.051,-0.0528,-0.0529,-0.053,0,0,0,0,0,0,0,0,0,0,0,0,0,-0.0474,-0.0474,-0.0514,-0.0514,-0.0514,-0.0529,-0.0529,-0.0529,-0.0512,-0.0511,-0.051,-0.051,-0.0528,-0.0529,-0.0531,0,0,0,0,0,0,0,0,0,0,0,0,0,-0.049,-0.0475,-0.0514,-0.0507,-0.0507,-0.0529,-0.0529,-0.053,-0.0512,-0.0511,-0.051,-0.0509,-0.0527,-0.0529,-0.0531,-0.0561,0,0,-0.0536,-0.0537,0,0,0,0,0,0,0,0,-0.0489,-0.0492,-0.0508,-0.0508,-0.0507,-0.0517,-0.0522,-0.054,-0.0512,-0.051,-0.051,-0.0509,-0.0526,-0.0527,-0.0533,-0.0562,-0.0563,-0.0536,-0.0537,-0.0538,-0.0538,0,0,0,0,0,0,0,-0.0488,-0.0491,-0.052,-0.0509,-0.0508,-0.0505,-0.0506,-0.0525,-0.0524,-0.051,-0.0509,-0.0511,-0.0525,-0.0531,-0.0533,-0.0563,-0.0536,-0.0537,-0.0538,-0.0539,-0.0619,-0.0621,0,0,0,0,0,0,-0.0487,-0.049,-0.052,-0.0521,-0.0496,-0.0506,-0.0508,-0.0515,-0.0523,-0.0523,-0.0512,-0.051,-0.0529,-0.0531,-0.0533,-0.0571,-0.0538,-0.0539,-0.054,-0.0618,-0.062,-0.0621,0,0,0,0,0,0,-0.0487,-0.049,-0.0519,-0.0505,-0.0508,-0.0508,-0.0517,-0.0516,-0.0522,-0.0524,-0.0524,-0.0518,-0.0528,-0.0531,-0.0554,-0.0571,-0.054,-0.0541,-0.0617,-0.0619,-0.062,-0.0645,0,0,0,0,0,0,-0.0486,-0.049,-0.0501,-0.0505,-0.0509,-0.0539,-0.0518,-0.0517,-0.0524,-0.0522,-0.053,-0.053,-0.0527,-0.0552,-0.0556,-0.0573,-0.0543,-0.0616,-0.0618,-0.062,-0.0643,-0.0648,-0.0651,0,0,0,0,0,-0.0484,-0.0507,-0.0501,-0.0505,-0.0522,-0.054,-0.0542,-0.0538,-0.0526,-0.0537,-0.0539,-0.053,-0.0568,-0.0555,-0.0559,-0.0577,-0.0614,-0.0617,-0.062,-0.0641,-0.0647,-0.0651,0,0,0,0,0,0,-0.0506,-0.0508,-0.0501,-0.0526,-0.0533,-0.0537,-0.0551,-0.0544,-0.0555,-0.0552,-0.0547,-0.0549,-0.0574,-0.0577,-0.0562,-0.0607,-0.059,-0.0593,-0.0604,-0.061,-0.0614,-0.0614,-0.0544,0,0,0,0,0,-0.0513,-0.0526,-0.0528,-0.055,-0.0553,-0.0552,-0.0559,-0.0555,-0.0562,-0.0565,-0.0568,-0.0576,-0.059,-0.06,-0.0613,-0.0643,-0.0645,-0.0657,-0.0661,-0.0665,-0.0669,-0.0687,-0.0693,-0.0629,-0.0629,-0.0629,0,0,-0.0529,-0.0532,-0.0541,-0.0554,-0.0559,-0.0574,-0.0554,-0.057,-0.0582,-0.0568,-0.059,-0.0593,-0.0602,-0.0629,-0.0641,-0.0633,-0.0686,-0.0668,-0.0671,-0.0673,-0.069,-0.0696,-0.0701,-0.0631,-0.0631,-0.063,0,0,-0.0567,-0.0569,-0.0589,-0.0594,-0.0601,-0.0599,-0.0604,-0.0609,-0.061,-0.0632,-0.0622,-0.0636,-0.066,-0.0667,-0.0674,-0.0714,-0.0707,-0.0718,-0.0742,-0.0759,-0.0764,-0.0769,-0.0785,-0.0791,-0.0722,-0.0722,-0.0722,0,-0.0587,-0.0608,-0.06,-0.0617,-0.0625,-0.0611,-0.0632,-0.0637,-0.0648,-0.0654,-0.0644,-0.0674,-0.0679,-0.0708,-0.0718,-0.0723,-0.073,-0.0718,-0.0764,-0.0768,-0.0772,-0.0788,-0.0794,-0.0723,-0.0723,-0.0723,-0.0723,0,-0.0632,-0.0647,-0.0662,-0.0673,-0.0681,-0.07,-0.0697,-0.0707,-0.0701,-0.0702,-0.0725,-0.073,-0.0745,-0.0751,-0.0746,-0.078,-0.0775,-0.0764,-0.0747,-0.078,-0.0795,-0.0801,-0.0725,-0.0725,-0.0724,-0.0724,0,0,-0.0685,-0.0691,-0.0697,-0.0702,-0.0709,-0.0721,-0.0739,-0.0753,-0.0762,-0.077,-0.0787,-0.0807,-0.0797,-0.0805,-0.0801,-0.0816,-0.085,-0.0804,-0.0804,-0.0814,-0.0891,-0.0901,-0.0908,-0.0845,-0.0846,-0.0847,-0.0891,0,-0.0725,-0.0756,-0.075,-0.0782,-0.0797,-0.0784,-0.08,-0.0807,-0.0808,-0.0821,-0.0822,-0.0837,-0.0822,-0.0827,-0.0841,-0.0843,-0.0866,-0.084,-0.0863,-0.0864,-0.0863,-0.0915,-0.0925,-0.0967,-0.0896,-0.0897,-0.0898,0,-0.0775,-0.0784,-0.0817,-0.0822,-0.0828,-0.0843,-0.0856,-0.0868,-0.0875,-0.0875,-0.0883,-0.0877,-0.0897,-0.0877,-0.0906,-0.0889,-0.0897,-0.09,-0.0902,-0.0906,-0.0884,-0.0923,-0.098,-0.0987,-0.0906,-0.0906,-0.0905,0,-0.0813,-0.0834,-0.0857,-0.0861,-0.0867,-0.0878,-0.0882,-0.0888,-0.0897,-0.0907,-0.0913,-0.0926,-0.0934,-0.0945,-0.0943,-0.0929,-0.0973,-0.0953,-0.0975,-0.0976,-0.0987,-0.0987,-0.1049,-0.0989,-0.0989,-0.0989,-0.0989,0,-0.0859,-0.0881,-0.0874,-0.0889,-0.0912,-0.0905,-0.093,-0.0931,-0.0937,-0.0953,-0.0942,-0.0957,-0.0952,-0.0967,-0.0965,-0.0991,-0.0994,-0.0995,-0.0995,-0.0998,-0.0998,-0.1005,-0.1003,-0.099,-0.099,-0.099,-0.0989,0,-0.0907,-0.0903,-0.0928,-0.0931,-0.0932,-0.095,-0.0954,-0.0968,-0.0967,-0.0987,-0.0991,-0.0991,-0.1008,-0.1006,-0.1025,-0.1024,-0.1057,-0.1052,-0.1054,-0.1054,-0.1077,-0.1076,-0.1148,-0.1158,-0.1089,-0.109,-0.109,0,-0.0938,-0.0954,-0.0959,-0.0968,-0.0972,-0.0987,-0.0995,-0.0989,-0.0999,-0.1009,-0.1022,-0.1038,-0.1051,-0.1079,-0.1082,-0.1097,-0.1094,-0.1118,-0.1096,-0.1099,-0.1097,-0.1097,-0.11,-0.1123,-0.1124,-0.1125,-0.1125,0,-0.0994,-0.0991,-0.1003,-0.1016,-0.1026,-0.1035,-0.1044,-0.1052,-0.1047,-0.1059,-0.1076,-0.1085,-0.1105,-0.1122,-0.1136,-0.1141,-0.1133,-0.1131,-0.1138,-0.1142,-0.1144,-0.1146,-0.1069,-0.1131,-0.113,-0.113,-0.1129,-0.1129,-0.1036,-0.105,-0.1056,-0.1071,-0.1076,-0.1084,-0.1098,-0.1099,-0.1113,-0.1128,-0.1123,-0.1143,-0.1151,-0.1169,-0.1175,-0.1192,-0.1183,-0.1192,-0.1195,-0.1198,-0.1202,-0.1139,-0.1194,-0.1194,-0.1194,-0.1194,-0.1194,0,-0.1093,-0.1096,-0.1109,-0.1122,-0.1133,-0.1123,-0.1132,-0.1143,-0.116,-0.1168,-0.118,-0.1201,-0.1217,-0.122,-0.1236,-0.1249,-0.1246,-0.1254,-0.1254,-0.1256,-0.1207,-0.1201,-0.1256,-0.1256,-0.1256,-0.1256,-0.1256,-0.1256,-0.1125,-0.1149,-0.1147,-0.1175,-0.1177,-0.1196,-0.1203,-0.1211,-0.1217,-0.124,-0.1253,-0.1255,-0.1261,-0.1277,-0.1293,-0.1293,-0.1301,-0.1311,-0.131,-0.1265,-0.1259,-0.1253,-0.1248,-0.1312,-0.1312,-0.1358,-0.1358,-0.1359]},{"header":{"parameterUnit":"m.s-1","parameterCategory":1,"la1":30.2991,"la2":30.254,"lo1":-89.0895,"lo2":-89.0444,"dy":0.0017,"dx":0.0017,"nx":28,"ny":28,"refTime":"2025-09-18T03:00:00:Z","depth":0,"parameterNumber":3,"parameterNumberName":"V-component_of_WINDS"},"data":[0,0,0,0,0,0,0,0,0,0,0,0,0,0,0,0,0,0,0,0,0,0,0,0,0,0,0,0,0,0,0,0,0,0,0,0,0,0,0,0,0,0,0,0,0,0,0,0,0,0,0,0,0,0,0,0,0,0,0.1922,0.1923,0,0.1985,0.1986,0.1986,0.1973,0.1972,0.1971,0.197,0.2034,0.2036,0.2039,0,0,0,0,0,0,0,0,0,0,0,0,0,0.1791,0.1793,0.1922,0.1923,0.1924,0.1985,0.1986,0.1987,0.1974,0.1972,0.1971,0.197,0.2033,0.2036,0.2039,0,0,0,0,0,0,0,0,0,0,0,0,0,0.185,0.1794,0.1922,0.1925,0.1926,0.1985,0.1986,0.1987,0.1974,0.1972,0.1971,0.1969,0.2032,0.2036,0.204,0.21,0,0,0.2052,0.2054,0,0,0,0,0,0,0,0,0.1847,0.1855,0.1924,0.1925,0.1926,0.197,0.1962,0.2025,0.1974,0.1956,0.197,0.1968,0.2014,0.2019,0.2035,0.2103,0.2105,0.2053,0.2055,0.2057,0.2058,0,0,0,0,0,0,0,0.1842,0.1852,0.1947,0.1925,0.1926,0.1922,0.1929,0.1974,0.1994,0.1957,0.1956,0.1964,0.2014,0.2031,0.2036,0.2106,0.2053,0.2056,0.2059,0.206,0.2225,0.2226,0,0,0,0,0,0,0.1838,0.1849,0.1945,0.1949,0.1881,0.1926,0.1934,0.1957,0.1993,0.1997,0.1965,0.1963,0.2024,0.2031,0.2038,0.211,0.2057,0.2061,0.2063,0.2223,0.2225,0.2227,0,0,0,0,0,0,0.1835,0.1846,0.1943,0.1899,0.1911,0.193,0.1957,0.1959,0.1976,0.1999,0.2002,0.1979,0.2023,0.2032,0.2084,0.2112,0.2063,0.2066,0.2221,0.2224,0.2226,0.2254,0,0,0,0,0,0,0.1831,0.1845,0.1869,0.1899,0.1913,0.1988,0.1959,0.1962,0.1984,0.1981,0.2013,0.2017,0.2023,0.2078,0.2088,0.2117,0.207,0.2218,0.2222,0.2225,0.2251,0.2258,0.2263,0,0,0,0,0,0.1826,0.1875,0.187,0.1882,0.1943,0.199,0.1998,0.2004,0.1986,0.2009,0.2024,0.2016,0.2107,0.2083,0.2095,0.2125,0.2216,0.2221,0.2225,0.2248,0.2256,0.2263,0,0,0,0,0,0,0.1847,0.1879,0.1874,0.1934,0.1959,0.1988,0.2018,0.2013,0.2044,0.204,0.2046,0.2054,0.2106,0.2121,0.2094,0.2184,0.2159,0.2166,0.2173,0.2181,0.2187,0.2182,0.2073,0,0,0,0,0,0.1859,0.1895,0.192,0.197,0.1983,0.1998,0.2019,0.2021,0.2048,0.2058,0.2077,0.2103,0.2137,0.216,0.2193,0.2253,0.2259,0.2279,0.2285,0.229,0.2296,0.2327,0.2336,0.2241,0.2241,0.2241,0,0,0.1883,0.1905,0.1927,0.1975,0.1995,0.2031,0.2007,0.2047,0.2074,0.2064,0.2114,0.2128,0.2157,0.2213,0.2239,0.2227,0.2323,0.2295,0.2299,0.2302,0.2333,0.2342,0.235,0.2244,0.2243,0.2243,0,0,0.1946,0.1966,0.2009,0.2029,0.206,0.2069,0.208,0.2109,0.2118,0.2168,0.2161,0.2192,0.2252,0.2273,0.2291,0.2359,0.2353,0.237,0.2403,0.2433,0.2441,0.2447,0.2471,0.248,0.2375,0.2375,0.2376,0,0.1972,0.2027,0.2032,0.2072,0.2093,0.2086,0.2129,0.2148,0.2188,0.2202,0.2188,0.2262,0.2281,0.2341,0.2357,0.2373,0.2384,0.2367,0.2439,0.2446,0.2452,0.2475,0.2484,0.2377,0.2377,0.2377,0.2377,0,0.2057,0.2095,0.2127,0.2165,0.2189,0.223,0.2241,0.2265,0.2265,0.2275,0.2325,0.2348,0.2385,0.2399,0.24,0.2459,0.245,0.2438,0.2413,0.2463,0.2485,0.2493,0.238,0.2379,0.2379,0.2378,0,0,0.2137,0.2176,0.2187,0.2203,0.2236,0.2265,0.2305,0.2341,0.2361,0.2388,0.2422,0.2471,0.246,0.248,0.2483,0.251,0.2561,0.2494,0.2494,0.2505,0.2627,0.2636,0.2646,0.2557,0.2558,0.256,0.2624,0,0.2202,0.2274,0.2279,0.2343,0.2378,0.237,0.2405,0.2428,0.2439,0.2469,0.2481,0.2515,0.2498,0.251,0.2536,0.2549,0.2586,0.2545,0.2588,0.2589,0.2581,0.2657,0.2667,0.2727,0.2632,0.2634,0.2635,0,0.2288,0.2317,0.2385,0.2411,0.2426,0.2457,0.249,0.2519,0.2544,0.255,0.2572,0.257,0.2611,0.2584,0.264,0.2612,0.2629,0.2638,0.2641,0.2645,0.2615,0.2663,0.2746,0.2755,0.2648,0.2647,0.2646,0,0.2338,0.2394,0.2442,0.2456,0.2488,0.251,0.2524,0.2548,0.2568,0.2596,0.261,0.2642,0.266,0.2685,0.2692,0.2672,0.2747,0.2721,0.2752,0.2752,0.2768,0.2767,0.2855,0.278,0.278,0.278,0.2779,0,0.2411,0.2453,0.2465,0.2494,0.254,0.2545,0.259,0.2603,0.2623,0.2654,0.265,0.2679,0.2686,0.2716,0.2722,0.2766,0.2774,0.2779,0.278,0.278,0.2779,0.2792,0.2788,0.2782,0.2781,0.2781,0.2781,0,0.2475,0.2485,0.2536,0.2561,0.2568,0.2601,0.2622,0.265,0.2659,0.2698,0.2708,0.2722,0.2757,0.2766,0.2808,0.2812,0.2864,0.2861,0.2856,0.2856,0.2886,0.2883,0.2985,0.2998,0.2914,0.2915,0.2916,0,0.2521,0.2553,0.258,0.2601,0.2616,0.2649,0.2669,0.2675,0.2696,0.2727,0.2751,0.2785,0.2813,0.2869,0.2883,0.2915,0.2913,0.2946,0.2917,0.2915,0.2913,0.2911,0.2913,0.2952,0.2953,0.2953,0.2954,0,0.2601,0.2603,0.2634,0.2665,0.269,0.2715,0.2739,0.2756,0.2764,0.2789,0.2825,0.2846,0.2888,0.2923,0.2954,0.2968,0.2962,0.2963,0.2971,0.2971,0.2967,0.2969,0.287,0.296,0.296,0.2959,0.2959,0.2959,0.2657,0.2684,0.2708,0.2741,0.2759,0.2781,0.2808,0.282,0.285,0.2885,0.2886,0.2925,0.2948,0.299,0.3005,0.3035,0.3025,0.3038,0.3041,0.3044,0.3046,0.2962,0.3041,0.3041,0.304,0.304,0.304,0,0.2736,0.275,0.2781,0.2814,0.284,0.2832,0.2857,0.288,0.2914,0.2936,0.2963,0.3003,0.3036,0.3052,0.3084,0.3104,0.3102,0.3112,0.3111,0.3114,0.3054,0.3043,0.3113,0.3113,0.3113,0.3113,0.3113,0.3113,0.278,0.2826,0.2831,0.2885,0.2899,0.2937,0.2952,0.2972,0.2989,0.3034,0.3061,0.3071,0.3091,0.3124,0.3153,0.3156,0.3168,0.318,0.3182,0.3126,0.3118,0.3111,0.3101,0.3182,0.3182,0.324,0.324,0.324]}]]